Location: Riverside Cemetery
(38.3047°N, 99.7773°W)
Time: 07:43:45
(UTC+00:00)

Cosmos 1707 - Pass Details

Date: 19 September 2020
Orbit: 515 x 531 km, 82.5° (Epoch: 21 October)

Event Time Altitude Azimuth Distance (km) Brightness Sun altitude
Rises 01:38:19 0° 2° (N) 2,644 6.4 -11.9°
Reaches altitude 10° 01:40:36 10° 12° (NNE) 1,751 5.4 -12.3°
Maximum altitude 01:44:07 34° 78° (ENE) 865 3.3 -13.0°
Enters shadow 01:46:23 18° 134° (SE) 1,302 4.2 -13.5°
